Home > Weather > Mürzzuschlag > Past weeks

Flag for Austria Past Weather in Mürzzuschlag, Styria, Austria — Yesterday and Last 2 Weeks

Now
68 °F

Overcast.


Feels Like: 68 °F
Forecast: 52 / 76 °F
Wind: 3 mph from Northwest

Location: Eisenstadt

Current Time: Jul 29, 2016 at 6:10:01 AM

Latest Report: Jul 29, 2016 at 5:00 AM


Visibility: 13 mi

Pressure: 29.96 "Hg (27.71 "Hg at 670m altitude)

Humidity: 73%

Dew Point: 59 °F

Location of MürzzuschlagLocation

Past Weather in Mürzzuschlag — Graph

°F

Mürzzuschlag Temperature Yesterday

Maximum temperature yesterday: 81 °F (at 3:00 PM)
Minimum temperature yesterday: 67 °F (at 6:00 AM)
Average temperature yesterday: 73 °F

High & Low Weather Summary for the Past Weeks

 TemperatureHumidityPressure
High86 °F (Jul 21, 3:00 PM)95% (Jul 23, 2:00 AM)30.19 "Hg (Jul 23, 2:00 AM)
Low56 °F (Jul 14, 7:00 AM)40% (Jul 19, 5:00 PM)29.73 "Hg (Jul 14, 7:00 AM)
Average71 °F68%30.01 "Hg
* Reported Jul 14 4:00 AM — Jul 29 4:00 AM, Mürzzuschlag, Weather by CustomWeather, © 2016

Note: Actual official high and low records may vary slightly from our data, if they occured in-between our weather recording intervals... More about our weather records

Advertising

Mürzzuschlag Weather History for the Previous 24 Hours

Scroll right to see more
 ConditionsComfort  
Time TempWeatherWind HumidityBarometerVisibility
4:00 AM
Fri, Jul 29
68 °FPassing clouds.3 mph72%29.96 "Hg12 mi
3:00 AM68 °FMild.3 mph70%29.95 "HgN/A
2:00 AM68 °FMild.5 mph71%29.95 "HgN/A
1:00 AM70 °FMild.2 mph65%29.95 "HgN/A
12:00 AM71 °FMild.3 mph68%29.96 "HgN/A
11:00 PM
Thu, Jul 28
70 °FPassing clouds.3 mph69%29.96 "Hg9 mi
10:00 PM70 °FMild.5 mph68%29.96 "HgN/A
9:00 PM71 °FMild.3 mph66%29.96 "HgN/A
8:00 PM74 °FScattered clouds.2 mph64%29.95 "Hg12 mi
7:00 PM80 °FPassing clouds.1 mph47%29.94 "Hg12 mi
6:00 PM80 °FWarm.1 mph49%29.93 "HgN/A
5:00 PM80 °FPartly sunny.2 mph50%29.94 "Hg12 mi
4:00 PM80 °FWarm.3 mph50%29.94 "HgN/A
3:00 PM81 °FWarm.2 mph49%29.95 "HgN/A
2:00 PM78 °FOvercast.2 mph58%29.97 "Hg12 mi
1:00 PM74 °FMild.2 mph65%30.01 "HgN/A
12:00 PM74 °FMild.2 mph65%30.02 "HgN/A
11:00 AM73 °FOvercast.3 mph66%30.00 "Hg12 mi
10:00 AM73 °FMild.5 mph67%29.99 "HgN/A
9:00 AM71 °FMild.5 mph71%29.99 "HgN/A
8:00 AM69 °FOvercast.5 mph75%29.99 "Hg12 mi
7:00 AM68 °FLight rain. Overcast.5 mph78%29.99 "Hg12 mi
6:00 AM67 °FOvercast.6 mph80%29.98 "Hg16 mi
Weather by CustomWeather, © 2016

See weather overviewHow to use our weather pages